Weather History for Cozumel, Mexico

Change the Weather History Date:

Sunday, February 23, 2014

  Actual Average Record
Temperature  
Mean Temperature 74 °F -  
Max Temperature 82 °F 83 °F 86 °F (1997)
Min Temperature 66 °F 70 °F 62 °F (2012)
Cooling Degree Days 9    
Growing Degree Days 24 (Base 50)    
Moisture  
Dew Point 69 °F    
Average Humidity 88    
Maximum Humidity 100    
Minimum Humidity 66    
Precipitation  
Precipitation 0.00 in - - ()
Sea Level Pressure  
Sea Level Pressure 30.01 in    
Wind  
Wind Speed 4 mph ()    
Max Wind Speed 16 mph    
Max Gust Speed 20 mph    
Visibility 7.5 miles    
Events      
Averages and records for this station are not official NWS values.
T = Trace of Precipitation, MM = Missing Value Source: Averaged Metar Reports

Daily Weather History Graph

Daily Weather History Graph

Search for Another Location

Airport:

Trip Planner

Search our weather history database for the weather conditions in past years. The results will help you decide how hot, cold, wet, or windy it might be!

Date:

Astronomy

Feb. 23, 2014 Rise Set
Actual Time 6:12 AM CST 5:50 PM CST
Civil Twilight 5:49 AM CST 6:12 PM CST
Nautical Twilight 5:24 AM CST 6:38 PM CST
Astronomical Twilight 4:58 AM CST 7:04 PM CST
Moon 12:48 AM CST (2/23) 12:14 PM CST (2/23)
Length of Visible Light 12h 22m
Length of Day
11h 37m
Last Quarter, 38% of the Moon is Illuminated
Feb 23
Last Quarter
Mar 1
New
Mar 8
First Quarter
Mar 16
Full
Mar 23
Last Quarter

Hourly Weather History & Observations

Time (CST) Temp. Heat Index Dew Point Humidity Pressure Visibility Wind Dir Wind Speed Gust Speed Precip Events Conditions
12:46 AM 66.2 °F - 66.2 °F 100% 30.01 in 7.0 mi Calm Calm - N/A   Clear
3:06 AM 66.2 °F - 66.2 °F 100% 30.01 in 7.0 mi Calm Calm - N/A   Clear
4:02 AM 66.2 °F - 66.2 °F 100% 29.98 in 7.0 mi Calm Calm - N/A   Clear
4:40 AM 66.2 °F - 66.2 °F 100% 29.98 in 7.0 mi Calm Calm - N/A   Clear
5:45 AM 66.2 °F - 66.2 °F 100% 29.98 in 7.0 mi Calm Calm - N/A   Clear
6:44 AM 66.2 °F - 66.2 °F 100% 30.02 in 7.0 mi Calm Calm - N/A   Clear
7:40 AM 73.4 °F - 71.6 °F 94% 30.03 in 8.0 mi SE 4.6 mph - N/A   Partly Cloudy
8:40 AM 78.8 °F - 71.6 °F 78% 30.08 in 8.0 mi ESE 11.5 mph - N/A   Scattered Clouds
9:41 AM 78.8 °F - 69.8 °F 74% 30.06 in 8.0 mi SE 8.1 mph 19.6 mph N/A   Scattered Clouds
10:40 AM 80.6 °F 83.9 °F 69.8 °F 70% 30.06 in 8.0 mi SE 15.0 mph - N/A   Scattered Clouds
11:40 AM 82.4 °F 87.2 °F 71.6 °F 70% 30.02 in 8.0 mi SE 15.0 mph - N/A   Scattered Clouds
12:40 PM 82.4 °F 86.3 °F 69.8 °F 66% 30.01 in 8.0 mi ESE 15.0 mph - N/A   Scattered Clouds
1:41 PM 80.6 °F 83.9 °F 69.8 °F 70% 29.98 in 8.0 mi SSE 16.1 mph - N/A   Scattered Clouds
2:42 PM 78.8 °F - 71.6 °F 78% 29.99 in 8.0 mi SE 11.5 mph - N/A   Partly Cloudy
3:43 PM 78.8 °F - 69.8 °F 74% 29.96 in 8.0 mi SE 11.5 mph - N/A   Scattered Clouds
4:49 PM 77.0 °F - 71.6 °F 83% 29.98 in 8.0 mi SE 8.1 mph - N/A   Scattered Clouds
5:49 PM 75.2 °F - 71.6 °F 89% 29.96 in 8.0 mi SE 8.1 mph - N/A   Scattered Clouds
6:44 PM 71.6 °F - 69.8 °F 94% 29.98 in 7.0 mi ESE 3.5 mph - N/A   Scattered Clouds
7:49 PM 71.6 °F - 69.8 °F 94% 30.00 in 7.0 mi ESE 3.5 mph - N/A   Scattered Clouds
8:45 PM 71.6 °F - 69.8 °F 94% 30.03 in 7.0 mi ESE 4.6 mph - N/A   Scattered Clouds
9:42 PM 69.8 °F - 69.8 °F 100% 30.01 in 7.0 mi Calm Calm - N/A   Scattered Clouds
10:44 PM 69.8 °F - 69.8 °F 100% 30.01 in 7.0 mi Calm Calm - N/A   Scattered Clouds
11:42 PM 69.8 °F - 69.8 °F 100% 29.98 in 7.0 mi ESE 3.5 mph - N/A   Partly Cloudy